| time (UTC) | temp F | wind direction | speed MPH | gust MPH | rain 1hr in | rain 24hr in | rain mn in | humidity % | barometer mb |
| 20260506013906 | 62 | 100 | 5.0 | 16.0 | 0.00 | 0.07 | 0.07 | 41 | 1014.5 |
| 20260506013406 | 63 | 189 | 7.0 | 18.0 | 0.00 | 0.07 | 0.07 | 40 | 1014.5 |
| 20260506012901 | 64 | 335 | 8.0 | 18.0 | 0.00 | 0.07 | 0.07 | 41 | 1014.6 |
| 20260506012400 | 64 | 19 | 9.0 | 18.0 | 0.00 | 0.07 | 0.07 | 41 | 1014.4 |
| 20260506011900 | 65 | 348 | 7.0 | 18.0 | 0.00 | 0.07 | 0.07 | 39 | 1014.3 |
| 20260506011634 | 65 | 283 | 5.0 | 14.0 | 0.00 | 0.07 | 0.07 | 40 | 1014.3 |
| 20260506011538 | 65 | 32 | 7.0 | 17.0 | 0.00 | 0.07 | 0.07 | 38 | 1014.0 |
| 20260506010400 | 66 | 328 | 7.0 | 17.0 | 0.00 | 0.07 | 0.07 | 39 | 1014.0 |
| 20260506005902 | 66 | 296 | 8.0 | 21.0 | 0.00 | 0.07 | 0.07 | 39 | 1014.0 |
| 20260506005629 | 66 | 337 | 9.0 | 21.0 | 0.00 | 0.07 | 0.07 | 39 | 1014.0 |
| 20260506005535 | 66 | 331 | 8.0 | 19.0 | 0.00 | 0.07 | 0.07 | 38 | 1013.9 |
| 20260506004358 | 67 | 7 | 8.0 | 19.0 | 0.00 | 0.07 | 0.07 | 39 | 1014.0 |
| 20260506003856 | 66 | 10 | 6.0 | 12.0 | 0.00 | 0.07 | 0.07 | 38 | 1013.9 |
| 20260506003356 | 67 | 239 | 5.0 | 12.0 | 0.00 | 0.07 | 0.07 | 38 | 1013.9 |
| 20260506002857 | 66 | 17 | 5.0 | 16.0 | 0.00 | 0.07 | 0.07 | 38 | 1013.9 |
| 20260506002351 | 67 | 157 | 5.0 | 16.0 | 0.00 | 0.07 | 0.07 | 37 | 1013.8 |
| 20260506001842 | 66 | 52 | 7.0 | 16.0 | 0.00 | 0.07 | 0.07 | 39 | 1013.9 |
| 20260506001342 | 65 | 187 | 8.0 | 19.0 | 0.00 | 0.07 | 0.07 | 38 | 1013.7 |
| 20260506000844 | 66 | 279 | 9.0 | 19.0 | 0.00 | 0.07 | 0.07 | 39 | 1013.7 |
| 20260506000342 | 66 | 309 | 7.0 | 19.0 | 0.00 | 0.07 | 0.07 | 37 | 1013.7 |
| 20260505235840 | 66 | 203 | 7.0 | 17.0 | 0.00 | 0.07 | 0.07 | 37 | 1013.7 |
| 20260505235342 | 66 | 114 | 7.0 | 22.0 | 0.00 | 0.07 | 0.07 | 37 | 1013.7 |
| 20260505234838 | 66 | 154 | 10.0 | 31.0 | 0.00 | 0.07 | 0.07 | 37 | 1013.5 |
| 20260505234339 | 65 | 129 | 10.0 | 31.0 | 0.00 | 0.07 | 0.07 | 36 | 1013.5 |
| 20260505233840 | 65 | 146 | 11.0 | 28.0 | 0.00 | 0.07 | 0.07 | 38 | 1013.3 |
| 20260505233338 | 65 | 259 | 12.0 | 28.0 | 0.00 | 0.07 | 0.07 | 37 | 1013.9 |
| 20260505232839 | 66 | 142 | 8.0 | 27.0 | 0.00 | 0.07 | 0.07 | 36 | 1013.7 |
| 20260505232339 | 67 | 144 | 7.0 | 17.0 | 0.00 | 0.07 | 0.07 | 37 | 1013.3 |
| 20260505231842 | 67 | 2 | 7.0 | 17.0 | 0.00 | 0.07 | 0.07 | 38 | 1013.3 |
| 20260505231342 | 67 | 325 | 11.0 | 31.0 | 0.00 | 0.07 | 0.07 | 37 | 1013.4 |
| 20260505230835 | 66 | 108 | 11.0 | 31.0 | 0.00 | 0.07 | 0.07 | 38 | 1013.5 |
| 20260505230558 | 65 | 223 | 11.0 | 23.0 | 0.00 | 0.07 | 0.07 | 38 | 1013.7 |
| 20260505225820 | 66 | 183 | 10.0 | 23.0 | 0.00 | 0.07 | 0.07 | 38 | 1013.9 |
| 20260505225314 | 67 | 153 | 7.0 | 15.0 | 0.00 | 0.07 | 0.07 | 36 | 1013.7 |
| 20260505224804 | 67 | 23 | 8.0 | 23.0 | 0.00 | 0.07 | 0.07 | 35 | 1013.7 |
| 20260505224257 | 67 | 206 | 7.0 | 23.0 | 0.00 | 0.07 | 0.07 | 36 | 1013.7 |
| 20260505223751 | 67 | 158 | 9.0 | 24.0 | 0.00 | 0.07 | 0.07 | 36 | 1013.8 |
| 20260505223241 | 67 | 325 | 9.0 | 24.0 | 0.00 | 0.07 | 0.07 | 35 | 1014.0 |
| 20260505222736 | 68 | 294 | 8.0 | 21.0 | 0.00 | 0.07 | 0.07 | 37 | 1013.9 |
| 20260505222229 | 69 | 348 | 8.0 | 20.0 | 0.00 | 0.07 | 0.07 | 34 | 1013.9 |
| 20260505221720 | 68 | 276 | 8.0 | 19.0 | 0.00 | 0.07 | 0.07 | 35 | 1014.1 |
| 20260505221214 | 68 | 110 | 6.0 | 17.0 | 0.00 | 0.07 | 0.07 | 35 | 1014.0 |
| 20260505220708 | 68 | 266 | 5.0 | 11.0 | 0.00 | 0.07 | 0.07 | 37 | 1014.3 |
| 20260505220158 | 68 | 314 | 7.0 | 19.0 | 0.00 | 0.07 | 0.07 | 36 | 1014.4 |
| 20260505215652 | 68 | 61 | 7.0 | 19.0 | 0.00 | 0.07 | 0.07 | 35 | 1014.0 |
| 20260505215154 | 67 | 300 | 5.0 | 18.0 | 0.00 | 0.07 | 0.07 | 37 | 1014.3 |
| 20260505214646 | 67 | 273 | 5.0 | 15.0 | 0.00 | 0.07 | 0.07 | 36 | 1014.3 |
| 20260505214146 | 67 | 262 | 5.0 | 15.0 | 0.00 | 0.07 | 0.07 | 37 | 1014.4 |
| 20260505213647 | 67 | 164 | 5.0 | 18.0 | 0.00 | 0.07 | 0.07 | 38 | 1014.5 |
| 20260505213147 | 67 | 295 | 8.0 | 23.0 | 0.00 | 0.07 | 0.07 | 38 | 1014.7 |
| 20260505212646 | 66 | 172 | 8.0 | 23.0 | 0.00 | 0.07 | 0.07 | 37 | 1014.6 |
| 20260505212146 | 67 | 118 | 8.0 | 22.0 | 0.00 | 0.07 | 0.07 | 35 | 1014.6 |
| 20260505211646 | 67 | 316 | 10.0 | 22.0 | 0.00 | 0.07 | 0.07 | 36 | 1014.8 |
| 20260505211150 | 66 | 154 | 11.0 | 24.0 | 0.00 | 0.07 | 0.07 | 36 | 1014.8 |
| 20260505210917 | 66 | 191 | 8.0 | 24.0 | 0.00 | 0.07 | 0.07 | 37 | 1014.8 |
| 20260505210146 | 66 | 164 | 6.0 | 15.0 | 0.00 | 0.07 | 0.07 | 39 | 1014.8 |
| 20260505205646 | 65 | 3 | 9.0 | 23.0 | 0.00 | 0.07 | 0.07 | 40 | 1014.8 |
| 20260505205146 | 65 | 181 | 12.0 | 23.0 | 0.00 | 0.07 | 0.07 | 38 | 1015.1 |
| 20260505204647 | 66 | 187 | 13.0 | 25.0 | 0.00 | 0.07 | 0.07 | 36 | 1015.8 |
| 20260505204141 | 66 | 338 | 12.0 | 25.0 | 0.00 | 0.07 | 0.07 | 36 | 1015.3 |
| 20260505203636 | 66 | 106 | 9.0 | 25.0 | 0.00 | 0.07 | 0.07 | 39 | 1015.1 |
| 20260505203137 | 65 | 148 | 7.0 | 19.0 | 0.00 | 0.07 | 0.07 | 42 | 1015.3 |
| 20260505202638 | 64 | 85 | 8.0 | 25.0 | 0.00 | 0.07 | 0.07 | 44 | 1015.2 |
| 20260505202137 | 64 | 323 | 9.0 | 25.0 | 0.00 | 0.07 | 0.07 | 47 | 1015.4 |
| 20260505201636 | 64 | 343 | 9.0 | 23.0 | 0.00 | 0.07 | 0.07 | 48 | 1015.4 |
| 20260505201135 | 64 | 108 | 10.0 | 23.0 | 0.00 | 0.07 | 0.07 | 46 | 1016.0 |
| 20260505200636 | 63 | 140 | 8.0 | 22.0 | 0.00 | 0.07 | 0.07 | 49 | 1015.7 |
| 20260505200137 | 65 | 125 | 4.0 | 11.0 | 0.00 | 0.07 | 0.07 | 49 | 1015.8 |
| 20260505195637 | 63 | 166 | 5.0 | 11.0 | 0.00 | 0.07 | 0.07 | 53 | 1015.8 |
| 20260505195135 | 62 | 179 | 5.0 | 11.0 | 0.00 | 0.07 | 0.07 | 55 | 1016.0 |
| 20260505194636 | 62 | 341 | 4.0 | 11.0 | 0.00 | 0.07 | 0.07 | 53 | 1016.0 |
| 20260505194137 | 62 | 304 | 4.0 | 11.0 | 0.00 | 0.07 | 0.07 | 55 | 1016.1 |
| 20260505193636 | 61 | 298 | 4.0 | 11.0 | 0.00 | 0.07 | 0.07 | 57 | 1016.2 |
| 20260505193140 | 61 | 288 | 5.0 | 12.0 | 0.00 | 0.07 | 0.07 | 57 | 1016.2 |
| 20260505192634 | 61 | 232 | 5.0 | 13.0 | 0.00 | 0.07 | 0.07 | 58 | 1016.2 |
| 20260505192125 | 61 | 350 | 5.0 | 12.0 | 0.00 | 0.07 | 0.07 | 56 | 1016.5 |
| 20260505191623 | 62 | 325 | 7.0 | 16.0 | 0.00 | 0.07 | 0.07 | 55 | 1016.5 |
| 20260505191129 | 63 | 315 | 7.0 | 16.0 | 0.00 | 0.07 | 0.07 | 57 | 1016.4 |
| 20260505190627 | 62 | 334 | 6.0 | 16.0 | 0.00 | 0.07 | 0.07 | 56 | 1016.5 |
| 20260505190123 | 62 | 314 | 6.0 | 14.0 | 0.00 | 0.07 | 0.07 | 56 | 1016.6 |
| 20260505185624 | 62 | 90 | 6.0 | 14.0 | 0.00 | 0.07 | 0.07 | 55 | 1016.7 |
| 20260505185124 | 63 | 237 | 6.0 | 14.0 | 0.00 | 0.07 | 0.07 | 56 | 1016.6 |
| 20260505184624 | 63 | 18 | 6.0 | 14.0 | 0.00 | 0.07 | 0.07 | 55 | 1016.7 |
| 20260505184124 | 62 | 285 | 6.0 | 14.0 | 0.00 | 0.07 | 0.07 | 58 | 1016.6 |
| 20260505183856 | 62 | 291 | 5.0 | 12.0 | 0.00 | 0.07 | 0.07 | 60 | 1016.8 |
| 20260505183124 | 61 | 346 | 4.0 | 11.0 | 0.00 | 0.07 | 0.07 | 58 | 1016.8 |
| 20260505182622 | 62 | 235 | 4.0 | 8.0 | 0.00 | 0.07 | 0.07 | 61 | 1016.8 |
| 20260505182123 | 60 | 32 | 4.0 | 8.0 | 0.00 | 0.07 | 0.07 | 61 | 1016.8 |
| 20260505181855 | 59 | 321 | 4.0 | 11.0 | 0.00 | 0.07 | 0.07 | 66 | 1017.2 |
| 20260505181116 | 59 | 227 | 7.0 | 22.0 | 0.00 | 0.07 | 0.07 | 63 | 1017.2 |
| 20260505180614 | 59 | 125 | 6.0 | 22.0 | 0.00 | 0.07 | 0.07 | 63 | 1017.0 |
| 20260505180344 | 59 | 281 | 4.0 | 12.0 | 0.00 | 0.07 | 0.07 | 65 | 1017.1 |
| 20260505175851 | 58 | 165 | 5.0 | 14.0 | 0.00 | 0.07 | 0.07 | 65 | 1017.0 |
| 20260505175116 | 59 | 314 | 5.0 | 14.0 | 0.00 | 0.07 | 0.07 | 66 | 1017.1 |
| 20260505174619 | 57 | 46 | 9.0 | 21.0 | 0.00 | 0.07 | 0.07 | 66 | 1016.7 |
| 20260505174118 | 57 | 146 | 9.0 | 21.0 | 0.00 | 0.07 | 0.07 | 67 | 1016.7 |
| 20260505173849 | 58 | 145 | 6.0 | 17.0 | 0.00 | 0.07 | 0.07 | 66 | 1016.8 |
| 20260505173119 | 58 | 279 | 8.0 | 19.0 | 0.00 | 0.07 | 0.07 | 67 | 1016.8 |
| 20260505172616 | 57 | 231 | 7.0 | 19.0 | 0.00 | 0.07 | 0.07 | 66 | 1016.6 |
| 20260505172114 | 57 | 248 | 5.0 | 17.0 | 0.00 | 0.07 | 0.07 | 68 | 1016.6 |
| 20260505171615 | 58 | 181 | 6.0 | 17.0 | 0.00 | 0.07 | 0.07 | 65 | 1017.0 |
| 20260505171112 | 58 | 300 | 5.0 | 15.0 | 0.00 | 0.07 | 0.07 | 67 | 1016.7 |
| 20260505170613 | 59 | 140 | 5.0 | 11.0 | 0.00 | 0.07 | 0.07 | 66 | 1017.0 |
| 20260505170345 | 58 | 147 | 6.0 | 18.0 | 0.00 | 0.07 | 0.07 | 69 | 1016.7 |
| 20260505165609 | 57 | 206 | 10.0 | 24.0 | 0.00 | 0.07 | 0.07 | 69 | 1016.7 |
| 20260505165111 | 57 | 148 | 12.0 | 29.0 | 0.00 | 0.07 | 0.07 | 69 | 1016.7 |
| 20260505164611 | 56 | 160 | 12.0 | 29.0 | 0.00 | 0.07 | 0.07 | 67 | 1016.5 |
| 20260505164110 | 56 | 165 | 11.0 | 25.0 | 0.00 | 0.07 | 0.07 | 69 | 1016.6 |
| 20260505163610 | 56 | 177 | 6.0 | 23.0 | 0.00 | 0.07 | 0.07 | 69 | 1016.6 |
| 20260505163109 | 57 | 199 | 4.0 | 21.0 | 0.00 | 0.07 | 0.07 | 69 | 1016.6 |
| 20260505162611 | 56 | 343 | 4.0 | 21.0 | 0.00 | 0.07 | 0.07 | 69 | 1016.5 |
| 20260505162109 | 55 | 200 | 5.0 | 14.0 | 0.00 | 0.07 | 0.07 | 71 | 1016.5 |
| 20260505161609 | 55 | 54 | 6.0 | 14.0 | 0.00 | 0.07 | 0.07 | 71 | 1016.6 |
| 20260505161347 | 55 | 320 | 4.0 | 14.0 | 0.00 | 0.07 | 0.07 | 74 | 1016.7 |
| 20260505160611 | 55 | 140 | 4.0 | 14.0 | 0.00 | 0.07 | 0.07 | 70 | 1016.6 |
| 20260505160109 | 55 | 4 | 4.0 | 12.0 | 0.00 | 0.07 | 0.07 | 70 | 1016.8 |
| 20260505153107 | 53 | 4 | 4.0 | 10.0 | 0.00 | 0.07 | 0.07 | 72 | 1016.6 |
| 20260505152842 | 53 | 11 | 4.0 | 10.0 | 0.00 | 0.07 | 0.07 | 75 | 1016.5 |
| 20260505152107 | 53 | 10 | 4.0 | 16.0 | 0.00 | 0.07 | 0.07 | 74 | 1016.2 |
| 20260505151606 | 53 | 351 | 5.0 | 16.0 | 0.00 | 0.07 | 0.07 | 76 | 1016.2 |
| 20260505151106 | 53 | 198 | 4.0 | 15.0 | 0.01 | 0.07 | 0.07 | 73 | 1015.8 |
| 20260505150607 | 53 | 155 | 3.0 | 10.0 | 0.01 | 0.07 | 0.07 | 75 | 1015.8 |
| 20260505150105 | 53 | 46 | 5.0 | 12.0 | 0.03 | 0.07 | 0.07 | 73 | 1016.4 |
| 20260505140559 | 52 | 84 | 3.0 | 8.0 | 0.06 | 0.06 | 0.06 | 76 | 1016.2 |
| 20260505140332 | 52 | 333 | 4.0 | 12.0 | 0.04 | 0.04 | 0.04 | 75 | 1016.4 |
| 20260505124917 | 53 | 157 | 3.0 | 6.0 | 0.00 | 0.00 | 0.00 | 62 | 1015.2 |
| 20260505124411 | 53 | 161 | 3.0 | 7.0 | 0.00 | 0.00 | 0.00 | 63 | 1015.0 |
| 20260505123904 | 53 | 160 | 3.0 | 7.0 | 0.00 | 0.00 | 0.00 | 61 | 1015.2 |
| 20260505123354 | 53 | 156 | 2.0 | 6.0 | 0.00 | 0.00 | 0.00 | 63 | 1015.3 |
| 20260505122846 | 53 | 157 | 3.0 | 8.0 | 0.00 | 0.00 | 0.00 | 62 | 1015.3 |
| 20260505122343 | 53 | 160 | 4.0 | 8.0 | 0.00 | 0.00 | 0.00 | 61 | 1015.4 |
| 20260505121832 | 53 | 147 | 5.0 | 9.0 | 0.00 | 0.00 | 0.00 | 61 | 1015.3 |
| 20260505121327 | 53 | 159 | 5.0 | 9.0 | 0.00 | 0.00 | 0.00 | 58 | 1015.3 |
| 20260505120820 | 54 | 146 | 3.0 | 6.0 | 0.00 | 0.00 | 0.00 | 58 | 1015.5 |
| 20260505120310 | 53 | 148 | 3.0 | 6.0 | 0.00 | 0.00 | 0.00 | 57 | 1015.5 |
| 20260505115805 | 53 | 147 | 4.0 | 8.0 | 0.00 | 0.00 | 0.00 | 55 | 1015.7 |
| 20260505115259 | 53 | 156 | 5.0 | 10.0 | 0.00 | 0.00 | 0.00 | 56 | 1015.7 |
| 20260505115019 | 53 | 138 | 4.0 | 11.0 | 0.00 | 0.00 | 0.00 | 58 | 1015.8 |
| 20260505114243 | 54 | 189 | 4.0 | 11.0 | 0.00 | 0.00 | 0.00 | 58 | 1015.9 |
| 20260505113737 | 54 | 140 | 5.0 | 10.0 | 0.00 | 0.00 | 0.00 | 55 | 1016.0 |
| 20260505113226 | 55 | 174 | 5.0 | 10.0 | 0.00 | 0.00 | 0.00 | 58 | 1016.1 |
| 20260505112721 | 55 | 167 | 3.0 | 8.0 | 0.00 | 0.00 | 0.00 | 54 | 1016.0 |
| 20260505112215 | 55 | 147 | 1.0 | 4.0 | 0.00 | 0.00 | 0.00 | 61 | 1015.8 |
| 20260505111705 | 55 | 326 | 1.0 | 4.0 | 0.00 | 0.00 | 0.00 | 62 | 1015.8 |
| 20260505111159 | 55 | 326 | 2.0 | 4.0 | 0.00 | 0.00 | 0.00 | 63 | 1015.9 |
| 20260505110652 | 55 | 310 | 2.0 | 6.0 | 0.00 | 0.00 | 0.00 | 63 | 1016.2 |
| 20260505110141 | 55 | 317 | 2.0 | 6.0 | 0.00 | 0.00 | 0.00 | 63 | 1016.1 |
| 20260505102107 | 56 | 341 | 6.0 | 10.0 | 0.00 | 0.00 | 0.00 | 54 | 1016.7 |
| 20260505101840 | 56 | 340 | 7.0 | 10.0 | 0.00 | 0.00 | 0.00 | 53 | 1016.6 |
| 20260505101109 | 56 | 329 | 7.0 | 10.0 | 0.00 | 0.00 | 0.00 | 52 | 1016.5 |
| 20260505100608 | 56 | 343 | 7.0 | 10.0 | 0.00 | 0.00 | 0.00 | 50 | 1016.6 |
| 20260505100107 | 56 | 327 | 6.0 | 9.0 | 0.00 | 0.00 | 0.00 | 47 | 1016.6 |
| 20260505095611 | 56 | 355 | 5.0 | 8.0 | 0.00 | 0.00 | 0.00 | 45 | 1016.7 |
| 20260505095108 | 57 | 351 | 4.0 | 8.0 | 0.00 | 0.00 | 0.00 | 44 | 1016.7 |
| 20260505094607 | 57 | 356 | 3.0 | 8.0 | 0.00 | 0.00 | 0.00 | 43 | 1016.7 |
| 20260505094106 | 57 | 6 | 2.0 | 4.0 | 0.00 | 0.00 | 0.00 | 42 | 1016.6 |
| 20260505093607 | 57 | 348 | 2.0 | 5.0 | 0.00 | 0.00 | 0.00 | 42 | 1016.7 |
| 20260505093108 | 57 | 2 | 2.0 | 5.0 | 0.00 | 0.00 | 0.00 | 41 | 1016.8 |
| 20260505092602 | 57 | 298 | 3.0 | 7.0 | 0.00 | 0.00 | 0.00 | 41 | 1017.0 |
| 20260505092102 | 58 | 329 | 4.0 | 9.0 | 0.00 | 0.00 | 0.00 | 40 | 1017.1 |
| 20260505091605 | 58 | 343 | 4.0 | 9.0 | 0.00 | 0.00 | 0.00 | 40 | 1017.0 |
| 20260505091104 | 58 | 17 | 4.0 | 8.0 | 0.00 | 0.00 | 0.00 | 40 | 1017.1 |
| 20260505090833 | 58 | 335 | 4.0 | 9.0 | 0.00 | 0.00 | 0.00 | 40 | 1017.1 |
| 20260505085601 | 58 | 347 | 3.0 | 9.0 | 0.00 | 0.00 | 0.00 | 39 | 1017.2 |
| 20260505085102 | 58 | 333 | 2.0 | 7.0 | 0.00 | 0.00 | 0.00 | 39 | 1017.3 |
| 20260505084602 | 58 | 264 | 2.0 | 8.0 | 0.00 | 0.00 | 0.00 | 39 | 1017.3 |
| 20260505084333 | 58 | 277 | 2.0 | 8.0 | 0.00 | 0.00 | 0.00 | 40 | 1017.5 |
| 20260505083602 | 58 | 251 | 3.0 | 10.0 | 0.00 | 0.00 | 0.00 | 40 | 1017.5 |
| 20260505083103 | 58 | 0 | 5.0 | 11.0 | 0.00 | 0.00 | 0.00 | 40 | 1017.4 |
| 20260505082557 | 58 | 286 | 6.0 | 11.0 | 0.00 | 0.00 | 0.00 | 39 | 1017.4 |
| 20260505082057 | 58 | 340 | 5.0 | 10.0 | 0.00 | 0.00 | 0.00 | 40 | 1017.7 |
| 20260505081558 | 59 | 329 | 3.0 | 8.0 | 0.00 | 0.00 | 0.00 | 39 | 1017.7 |
| 20260505081053 | 59 | 133 | 4.0 | 10.0 | 0.00 | 0.00 | 0.00 | 39 | 1017.7 |
| 20260505080823 | 59 | 318 | 4.0 | 12.0 | 0.00 | 0.00 | 0.00 | 39 | 1017.5 |
| 20260505080055 | 59 | 325 | 4.0 | 12.0 | 0.00 | 0.00 | 0.00 | 39 | 1017.4 |
| 20260505075551 | 59 | 332 | 4.0 | 11.0 | 0.00 | 0.00 | 0.00 | 38 | 1017.5 |
| 20260505075051 | 59 | 338 | 6.0 | 15.0 | 0.00 | 0.00 | 0.00 | 38 | 1017.8 |
| 20260505074550 | 59 | 302 | 6.0 | 15.0 | 0.00 | 0.00 | 0.00 | 38 | 1018.0 |
| 20260505074051 | 59 | 269 | 4.0 | 11.0 | 0.00 | 0.00 | 0.00 | 39 | 1018.0 |
| 20260505073552 | 59 | 171 | 4.0 | 10.0 | 0.00 | 0.00 | 0.00 | 39 | 1018.0 |
| 20260505073051 | 59 | 314 | 6.0 | 15.0 | 0.00 | 0.00 | 0.00 | 39 | 1018.0 |
| 20260505072550 | 59 | 320 | 9.0 | 15.0 | 0.00 | 0.00 | 0.00 | 39 | 1017.8 |
| 20260505072049 | 59 | 357 | 7.0 | 15.0 | 0.00 | 0.00 | 0.00 | 38 | 1018.0 |
| 20260505071549 | 59 | 306 | 5.0 | 11.0 | 0.00 | 0.00 | 0.00 | 39 | 1018.2 |
| 20260505071049 | 59 | 325 | 5.0 | 10.0 | 0.00 | 0.00 | 0.00 | 38 | 1018.0 |
| 20260505070549 | 59 | 247 | 6.0 | 12.0 | 0.00 | 0.00 | 0.00 | 39 | 1017.9 |
| 20260505070049 | 59 | 348 | 6.0 | 12.0 | 0.00 | 0.00 | 0.00 | 39 | 1017.8 |
| 20260505065549 | 59 | 312 | 4.0 | 8.0 | 0.00 | 0.00 | 0.00 | 39 | 1017.9 |
| 20260505065318 | 59 | 321 | 4.0 | 8.0 | 0.00 | 0.00 | 0.00 | 39 | 1017.9 |
| 20260505064552 | 59 | 316 | 2.0 | 8.0 | 0.00 | 0.00 | 0.00 | 38 | 1018.0 |
| 20260505064051 | 60 | 266 | 3.0 | 8.0 | 0.00 | 0.00 | 0.00 | 39 | 1017.8 |
| 20260505063550 | 60 | 290 | 3.0 | 8.0 | 0.00 | 0.00 | 0.00 | 38 | 1018.0 |
| 20260505063051 | 60 | 264 | 4.0 | 10.0 | 0.00 | 0.00 | 0.00 | 38 | 1018.2 |
| 20260505062548 | 60 | 230 | 4.0 | 10.0 | 0.00 | 0.00 | 0.00 | 39 | 1018.1 |
| 20260505062047 | 60 | 310 | 3.0 | 9.0 | 0.00 | 0.00 | 0.00 | 39 | 1018.0 |
| 20260505061550 | 60 | 271 | 7.0 | 14.0 | 0.00 | 0.00 | 0.00 | 40 | 1018.1 |
| 20260505061048 | 59 | 350 | 7.0 | 14.0 | 0.00 | 0.00 | 0.00 | 40 | 1018.1 |
| 20260505060549 | 58 | 339 | 4.0 | 10.0 | 0.00 | 0.00 | 0.00 | 43 | 1018.2 |
| 20260505060052 | 58 | 318 | 3.0 | 8.0 | 0.00 | 0.00 | 0.00 | 43 | 1018.1 |
| 20260505055547 | 58 | 288 | 3.0 | 8.0 | 0.00 | 0.00 | 0.00 | 43 | 1018.4 |
| 20260505055047 | 58 | 28 | 3.0 | 7.0 | 0.00 | 0.00 | 0.00 | 43 | 1018.1 |
| 20260505054546 | 58 | 327 | 4.0 | 8.0 | 0.00 | 0.00 | 0.00 | 43 | 1018.5 |
| 20260505054048 | 58 | 349 | 4.0 | 8.0 | 0.00 | 0.00 | 0.00 | 43 | 1018.5 |
| 20260505053549 | 58 | 281 | 4.0 | 8.0 | 0.00 | 0.00 | 0.00 | 44 | 1018.2 |
| 20260505053048 | 58 | 7 | 5.0 | 11.0 | 0.00 | 0.00 | 0.00 | 43 | 1018.2 |
| 20260505052546 | 58 | 343 | 5.0 | 11.0 | 0.00 | 0.00 | 0.00 | 43 | 1018.4 |
| 20260505052047 | 58 | 332 | 4.0 | 8.0 | 0.00 | 0.00 | 0.00 | 43 | 1018.4 |
| 20260505051547 | 58 | 347 | 4.0 | 9.0 | 0.00 | 0.00 | 0.00 | 43 | 1018.6 |
| 20260505051046 | 58 | 316 | 4.0 | 9.0 | 0.00 | 0.00 | 0.00 | 43 | 1018.6 |
| 20260505050546 | 58 | 15 | 4.0 | 9.0 | 0.00 | 0.00 | 0.00 | 43 | 1018.7 |
| 20260505041045 | 60 | 2 | 8.0 | 14.0 | 0.00 | 0.00 | 0.00 | 38 | 1018.2 |
| 20260505040540 | 60 | 321 | 9.0 | 14.0 | 0.00 | 0.00 | 0.00 | 38 | 1017.9 |
| 20260505040310 | 60 | 356 | 9.0 | 12.0 | 0.00 | 0.00 | 0.00 | 38 | 1017.9 |
| 20260505035539 | 60 | 352 | 8.0 | 12.0 | 0.00 | 0.00 | 0.00 | 37 | 1018.0 |
| 20260505035308 | 60 | 323 | 9.0 | 12.0 | 0.00 | 0.00 | 0.00 | 37 | 1018.2 |
| 20260505034527 | 61 | 323 | 10.0 | 14.0 | 0.00 | 0.00 | 0.00 | 37 | 1018.2 |
| 20260505034022 | 61 | 337 | 10.0 | 14.0 | 0.00 | 0.00 | 0.00 | 36 | 1018.2 |
| 20260505033522 | 61 | 13 | 10.0 | 15.0 | 0.00 | 0.00 | 0.00 | 36 | 1018.1 |
| 20260505033022 | 61 | 329 | 10.0 | 15.0 | 0.00 | 0.00 | 0.00 | 35 | 1018.1 |
| 20260505032801 | 61 | 337 | 9.0 | 13.0 | 0.00 | 0.00 | 0.00 | 35 | 1017.9 |
| 20260505032023 | 61 | 21 | 10.0 | 15.0 | 0.00 | 0.00 | 0.00 | 35 | 1017.8 |
| 20260505031524 | 62 | 354 | 11.0 | 15.0 | 0.00 | 0.00 | 0.00 | 34 | 1017.8 |
| 20260505031022 | 62 | 2 | 10.0 | 14.0 | 0.00 | 0.00 | 0.00 | 34 | 1017.8 |
| 20260505030529 | 62 | 326 | 10.0 | 17.0 | 0.00 | 0.00 | 0.00 | 33 | 1017.4 |
| 20260505030522 | 62 | 349 | 9.0 | 17.0 | 0.00 | 0.00 | 0.00 | 34 | 1017.7 |
| 20260505025523 | 62 | 345 | 10.0 | 15.0 | 0.00 | 0.00 | 0.00 | 33 | 1017.5 |
| 20260505025022 | 63 | 354 | 11.0 | 17.0 | 0.00 | 0.00 | 0.00 | 32 | 1017.3 |
| 20260505024758 | 63 | 342 | 11.0 | 17.0 | 0.00 | 0.00 | 0.00 | 32 | 1017.2 |
| 20260505024026 | 64 | 351 | 11.0 | 17.0 | 0.00 | 0.00 | 0.00 | 31 | 1017.0 |
| 20260505023519 | 65 | 350 | 8.0 | 16.0 | 0.00 | 0.00 | 0.00 | 30 | 1017.0 |
| 20260505023014 | 66 | 311 | 4.0 | 12.0 | 0.00 | 0.00 | 0.00 | 30 | 1017.0 |
| 20260505022751 | 67 | 334 | 2.0 | 10.0 | 0.00 | 0.00 | 0.00 | 32 | 1016.7 |
| 20260505022511 | 67 | 296 | 3.0 | 10.0 | 0.00 | 0.00 | 0.00 | 32 | 1016.8 |
| 20260505021509 | 67 | 356 | 2.0 | 6.0 | 0.00 | 0.00 | 0.00 | 32 | 1016.7 |
| 20260505021009 | 67 | 318 | 2.0 | 6.0 | 0.00 | 0.00 | 0.00 | 32 | 1016.6 |
| 20260505020507 | 67 | 2 | 2.0 | 5.0 | 0.00 | 0.00 | 0.00 | 32 | 1016.6 |
| 20260505020005 | 67 | 280 | 1.0 | 4.0 | 0.00 | 0.00 | 0.00 | 33 | 1016.7 |
| 20260505015505 | 68 | 75 | 1.0 | 4.0 | 0.00 | 0.00 | 0.00 | 31 | 1016.6 |
| 20260505015004 | 68 | 296 | 1.0 | 4.0 | 0.00 | 0.00 | 0.00 | 31 | 1016.8 |
| 20260505014735 | 68 | 315 | 2.0 | 7.0 | 0.00 | 0.00 | 0.00 | 31 | 1017.0 |
| 20260505014004 | 68 | 15 | 4.0 | 13.0 | 0.00 | 0.00 | 0.00 | 30 | 1016.8 |